Terminal Aerodrome Forecast
Issued by NWS Glasgow, MT

Home | Current Version | Previous Version | Text Only | Print | Product List | Glossary On
Versions: 1 2 3 4 5 6 7 8 9 10 11 12 13 14 15 16
000
FTUS45 KGGW 282300
TAFGGW
TAF
KGGW 282326Z 2900/2924 01017KT P6SM VCSH FEW035 BKN050
     FM290200 01010KT P6SM SCT100
     FM291200 04007KT P6SM FEW250=

USA.gov is the U.S. government's official web portal to all federal, state and local government web resources and services.